Weather History for Waukesha, WI

Change the Weather History Date:

Thursday, January 23, 2014

  Actual Average Record
Temperature  
Mean Temperature -2 °F -  
Max Temperature 3 °F 31 °F 50 °F (1967)
Min Temperature -7 °F 16 °F -22 °F (1963)
Degree Days  
Heating Degree Days 67    
Moisture  
Dew Point -10 °F    
Average Humidity 69    
Maximum Humidity 78    
Minimum Humidity 60    
Precipitation  
Precipitation 0.00 in - - ()
Sea Level Pressure  
Sea Level Pressure 30.36 in    
Wind  
Wind Speed 15 mph (West)    
Max Wind Speed 23 mph    
Max Gust Speed 29 mph    
Visibility 10 miles    
Events      
Averages and records for this station are not official NWS values.
T = Trace of Precipitation, MM = Missing Value Source: NWS Daily Summary

Daily Weather History Graph

Daily Weather History Graph

Search for Another Location

Airport:

Trip Planner

Search our weather history database for the weather conditions in past years. The results will help you decide how hot, cold, wet, or windy it might be!

Date:

Astronomy

Jan. 23, 2014 Rise Set
Actual Time 7:16 AM CST 4:53 PM CST
Civil Twilight 6:45 AM CST 5:24 PM CST
Nautical Twilight 6:11 AM CST 5:59 PM CST
Astronomical Twilight 5:37 AM CST 6:32 PM CST
Moon No Moon Rise 10:39 AM CST (1/23)
Length of Visible Light 10h 38m
Length of Day
9h 37m
Waning Gibbous, 55% of the Moon is Illuminated
Jan 23
Waning Gibbous
Jan 23
Last Quarter
Jan 30
New
Feb 6
First Quarter
Feb 14
Full

Hourly Weather History & Observations

Time (CST) Temp. Windchill Dew Point Humidity Pressure Visibility Wind Dir Wind Speed Gust Speed Precip Events Conditions
12:15 AM -4.0 °F -24.5 °F -13.0 °F 65% 30.13 in 10.0 mi WNW 15.0 mph 21.9 mph N/A   Clear
12:35 AM -4.0 °F -23.0 °F -13.0 °F 65% 30.15 in 10.0 mi West 12.7 mph 19.6 mph N/A   Clear
12:55 AM -4.0 °F -25.8 °F -11.2 °F 71% 30.15 in 10.0 mi WNW 17.3 mph - N/A   Clear
1:15 AM -4.0 °F -26.4 °F -11.2 °F 71% 30.15 in 10.0 mi WNW 18.4 mph 24.2 mph N/A   Clear
1:35 AM -4.0 °F -25.2 °F -11.2 °F 71% 30.16 in 10.0 mi WNW 16.1 mph 24.2 mph N/A   Clear
1:55 AM -4.0 °F -25.2 °F -11.2 °F 71% 30.17 in 10.0 mi WNW 16.1 mph - N/A   Clear
2:15 AM -4.0 °F -25.2 °F -11.2 °F 71% 30.18 in 10.0 mi WNW 16.1 mph 23.0 mph N/A   Clear
2:35 AM -4.0 °F -26.4 °F -11.2 °F 71% 30.18 in 10.0 mi WNW 18.4 mph 23.0 mph N/A   Clear
2:55 AM -4.0 °F -27.6 °F -11.2 °F 71% 30.19 in 7.0 mi WNW 20.7 mph 26.5 mph N/A   Clear
3:15 AM -4.0 °F -28.6 °F -9.4 °F 78% 30.19 in 3.0 mi WNW 23.0 mph 27.6 mph N/A   Haze
3:35 AM -4.0 °F -27.6 °F -9.4 °F 78% 30.20 in 4.0 mi WNW 20.7 mph 26.5 mph N/A   Haze
3:55 AM -4.0 °F -27.6 °F -9.4 °F 78% 30.21 in 5.0 mi WNW 20.7 mph 26.5 mph N/A   Haze
4:15 AM -4.0 °F -26.4 °F -9.4 °F 78% 30.23 in 10.0 mi WNW 18.4 mph 26.5 mph N/A   Clear
4:35 AM -4.0 °F -25.2 °F -9.4 °F 78% 30.24 in 10.0 mi WNW 16.1 mph 23.0 mph N/A   Scattered Clouds
5:45 AM -2.2 °F -22.2 °F -9.4 °F 71% 30.28 in 10.0 mi WNW 15.0 mph 28.8 mph N/A   Clear
6:45 AM -2.2 °F -22.2 °F -9.4 °F 71% 30.32 in 10.0 mi WNW 15.0 mph 28.8 mph N/A   Clear
7:45 AM -2.2 °F -22.2 °F -9.4 °F 71% 30.36 in 10.0 mi WNW 15.0 mph 28.8 mph N/A   Clear
8:45 AM -2.2 °F -22.2 °F -9.4 °F 71% 30.40 in 10.0 mi WNW 15.0 mph 28.8 mph N/A   Clear
9:45 AM 1.4 °F -18.2 °F -7.6 °F 66% 30.43 in 10.0 mi WNW 16.1 mph - N/A   Clear
10:45 AM 1.4 °F -19.4 °F -7.6 °F 66% 30.47 in 10.0 mi WNW 18.4 mph - N/A   Clear
11:45 AM 1.4 °F -18.2 °F -7.6 °F 66% 30.47 in 10.0 mi NW 16.1 mph - N/A   Clear
12:45 PM 3.2 °F -15.9 °F -5.8 °F 66% 30.48 in 10.0 mi NW 16.1 mph - N/A   Clear
1:45 PM 3.2 °F -14.6 °F -5.8 °F 66% 30.48 in 10.0 mi WNW 13.8 mph - N/A   Clear
2:45 PM 3.2 °F -14.6 °F -5.8 °F 66% 30.49 in 10.0 mi WNW 13.8 mph - N/A   Clear
3:45 PM 3.2 °F -14.6 °F -5.8 °F 66% 30.51 in 10.0 mi WNW 13.8 mph - N/A   Clear
4:45 PM 3.2 °F -10.3 °F -7.6 °F 61% 30.52 in 10.0 mi West 8.1 mph - N/A   Clear
5:45 PM 1.4 °F -13.5 °F -7.6 °F 66% 30.52 in 10.0 mi West 9.2 mph - N/A   Clear
6:45 PM -0.4 °F -12.0 °F -9.4 °F 66% 30.52 in 10.0 mi WSW 5.8 mph - N/A   Clear
7:45 PM -0.4 °F -16.7 °F -9.4 °F 66% 30.50 in 10.0 mi West 10.4 mph - N/A   Clear
8:35 PM -0.4 °F -17.6 °F -9.4 °F 66% 30.50 in 10.0 mi West 11.5 mph - N/A   Clear
8:45 PM -2.2 °F -18.9 °F -11.2 °F 66% 30.50 in 10.0 mi West 10.4 mph - N/A   Clear
8:55 PM -0.4 °F -13.4 °F -11.2 °F 60% 30.50 in 10.0 mi West 6.9 mph - N/A   Clear
9:15 PM -0.4 °F -15.7 °F -11.2 °F 60% 30.49 in 10.0 mi West 9.2 mph - N/A   Clear
9:55 PM -2.2 °F -18.0 °F -11.2 °F 66% 30.48 in 10.0 mi West 9.2 mph - N/A   Clear
10:15 PM -4.0 °F -20.2 °F -13.0 °F 65% 30.47 in 10.0 mi WSW 9.2 mph - N/A   Clear
10:35 PM -4.0 °F -19.0 °F -13.0 °F 65% 30.47 in 10.0 mi WSW 8.1 mph - N/A   Clear
10:55 PM -5.8 °F -22.4 °F -13.0 °F 71% 30.46 in 10.0 mi WSW 9.2 mph - N/A   Clear
11:15 PM -5.8 °F -22.4 °F -13.0 °F 71% 30.45 in 10.0 mi WSW 9.2 mph - N/A   Clear
11:35 PM -7.6 °F -26.6 °F -14.8 °F 71% 30.44 in 10.0 mi WSW 11.5 mph - N/A   Clear
11:55 PM -7.6 °F -26.6 °F -14.8 °F 71% 30.43 in 10.0 mi WSW 11.5 mph - N/A   Clear